Home > Weather > Oranienburg > Past weeks

Flag for Germany Weather for the Past 2 Weeks in Oranienburg, Brandenburg, Germany

Now
46 °F

Partly sunny.


Feels Like: 40 °F
Forecast: 43 / 48 °F
Wind: 16 mph from South

Location: Berlin-Tegel

Current Time: Feb 8, 2016 at 12:01:49 PM

Latest Report: Feb 8, 2016 at 11:20 AM


Visibility: N/A

Pressure: 29.42 "Hg

Humidity: 66%

Dew point: 36 °F

Location of OranienburgLocation

Historic Weather in Oranienburg — Graph

°F

Oranienburg Temperature Yesterday

Maximum temperature yesterday: 50 °F (at 11:50 AM)
Minimum temperature yesterday: 39 °F (at 5:20 AM)
Average temperature yesterday: 45 °F

High & Low Weather Summary for the Past Weeks

 TemperatureHumidityPressure
High54 °F (Jan 27, 12:20 PM)100% (Jan 24, 11:20 PM)30.45 "Hg (Jan 24, 11:20 PM)
Low30 °F (Feb 5, 5:20 AM)44% (Feb 2, 1:20 PM)29.45 "Hg (Feb 8, 9:50 AM)
Average44 °F78%29.95 "Hg
* Reported Jan 24 10:20 AM — Feb 8 10:50 AM, Oranienburg, Weather by CustomWeather, © 2016

Note: Actual official high and low records may vary slightly from our data, if they occured in-between our weather recording intervals... More about our weather records

Advertising

Oranienburg Weather History for the Previous 24 Hours

 ConditionsComfort  
Time TempWeatherWind HumidityBarometerVisibility
10:50 AM
Mon, Feb 8
46 °FBroken clouds.15 mph66%29.45 "HgN/A
10:20 AM46 °FLight rain. Broken clouds.17 mph66%29.45 "HgN/A
9:50 AM46 °FSunny.17 mph62%29.45 "Hg10 mi
9:20 AM46 °FBroken clouds.18 mph62%29.47 "HgN/A
8:50 AM45 °FLight rain. Broken clouds.20 mph66%29.47 "HgN/A
8:20 AM45 °FLight rain. Clear.20 mph66%29.47 "HgN/A
7:50 AM45 °FSunny.17 mph66%29.50 "Hg10 mi
7:20 AM43 °FClear.15 mph71%29.50 "Hg10 mi
6:50 AM43 °FClear.14 mph71%29.53 "Hg10 mi
6:20 AM43 °FClear.14 mph71%29.53 "Hg10 mi
5:50 AM43 °FClear.13 mph71%29.56 "Hg10 mi
5:20 AM43 °FClear.14 mph76%29.59 "Hg10 mi
4:20 AM43 °FPassing clouds.14 mph71%29.59 "HgN/A
3:50 AM43 °FClear.10 mph76%29.62 "Hg10 mi
3:20 AM43 °FClear.9 mph76%29.62 "Hg10 mi
2:50 AM43 °FClear.12 mph76%29.62 "Hg10 mi
2:20 AM45 °FClear.10 mph76%29.65 "Hg10 mi
1:50 AM45 °FClear.10 mph76%29.65 "Hg10 mi
1:20 AM45 °FPassing clouds.12 mph81%29.65 "HgN/A
12:50 AM43 °FPassing clouds.7 mph87%29.65 "HgN/A
12:20 AM45 °FPassing clouds.8 mph81%29.65 "HgN/A
11:50 PM
Sun, Feb 7
45 °FPassing clouds.5 mph87%29.65 "HgN/A
11:20 PM45 °FPassing clouds.7 mph87%29.65 "HgN/A
10:50 PM43 °FPartly cloudy.5 mph93%29.65 "HgN/A
10:20 PM45 °FPassing clouds.6 mph87%29.65 "HgN/A
9:50 PM45 °FPartly cloudy.6 mph87%29.65 "HgN/A
9:20 PM45 °FLight rain. Partly cloudy.12 mph87%29.65 "HgN/A
8:50 PM46 °FLight rain. Passing clouds.13 mph76%29.62 "HgN/A
8:20 PM46 °FPartly cloudy.9 mph66%29.62 "HgN/A
7:50 PM46 °FClear.10 mph66%29.62 "Hg10 mi
7:20 PM46 °FPassing clouds.10 mph71%29.59 "HgN/A
6:50 PM48 °FPassing clouds.10 mph66%29.59 "HgN/A
6:20 PM48 °FClear.10 mph66%29.59 "Hg10 mi
5:50 PM48 °FClear.10 mph66%29.59 "Hg10 mi
5:20 PM48 °FClear.9 mph66%29.59 "Hg10 mi
4:20 PM48 °FSunny.10 mph66%29.59 "Hg10 mi
3:50 PM50 °FSunny.12 mph58%29.59 "Hg10 mi
3:20 PM50 °FSunny.10 mph58%29.59 "Hg10 mi
2:50 PM50 °FSunny.12 mph58%29.59 "Hg10 mi
2:20 PM50 °FPassing clouds.10 mph58%29.59 "HgN/A
1:50 PM50 °FSunny.12 mph58%29.59 "Hg10 mi
1:20 PM50 °FPassing clouds.14 mph58%29.59 "HgN/A
12:50 PM50 °FSunny.12 mph58%29.59 "Hg10 mi
12:20 PM50 °FSunny.13 mph58%29.62 "Hg10 mi
Weather by CustomWeather, © 2016

See weather overviewHow to use our weather pages